Regional Weather Roundup
Issued by NWS

Home | Current Version | Previous Version | Graphics & Text | Print | Product List | Glossary On
Versions: 1 2 3 4 5 6 7 8 9 10 11 12 13 14 15 16 17 18 19 20 21 22 23 24 25 26 27 28 29 30 31 32 33 34 35 36 37 38 39 40 41 42 43 44 45 46 47 48 49 50
000
ASUS45 KSLC 271610
RWRUT

UTAH REGIONAL WEATHER ROUNDUP
NATIONAL WEATHER SERVICE SALT LAKE CITY UT
900 AM MST FRI FEB 27 2015

UTZ001>011-023>025-271700-

NORTHERN UTAH

CITY           SKY/WX    TMP DP  RH WIND       PRES   REMARKS
BRIGHAM CITY   CLOUDY    33  27  79 CALM      29.84R
HILL AFB       CLOUDY    31  20  63 E10       29.82R WCI  22
LOGAN          LGT SNOW  28  23  81 N5        29.82S WCI  23
OGDEN          CLOUDY    33  21  61 S9        29.82R WCI  25
PROVO AIRPORT  PTSUNNY   34  27  75 CALM      29.85S
SALT LAKE CITY CLOUDY    34  23  64 SE8       29.83S WCI  27
VERNAL         MOSUNNY   25  11  55 CALM      29.89S
WENDOVER       MOSUNNY   36  28  75 E3        29.82S
HEBER CITY     CLOUDY    27  19  74 CALM      29.83S
WEST JORDAN    CLOUDY    32  30  93 S7        29.84R WCI  26

$$

UTZ012>022-026-027-271700-

SOUTHERN/CENTRAL UTAH

CITY           SKY/WX    TMP DP  RH WIND       PRES   REMARKS
BLANDING       CLOUDY    27  26  96 NE3       29.94R
BRYCE CANYON   MOSUNNY   21  17  84 W3        29.81S
CEDAR CITY     PTSUNNY   29  23  78 CALM      29.80S
DELTA          MOSUNNY   31  26  83 CALM      29.83S
HANKSVILLE     CLOUDY    32  32 100 CALM      29.88S
MILFORD        SUNNY     30  23  75 S5        29.82S WCI  25
MOAB/CYNLANDS  CLOUDY    36  32  85 CALM      29.84R
PRICE          MOSUNNY   27  20  75 SW3       29.81S
ST GEORGE      PTSUNNY   45  30  57 S5        29.84S

$$

REGIONAL REPORTS     COLORADO/ARIZONA

CITY           SKY/WX    TMP DP  RH WIND       PRES   REMARKS
CRAIG, CO      CLOUDY    14   8  77 CALM      29.89F HAZE
GRAND JUNCTION FLURRIES  29  28  96 SW3       29.85R
RIFLE          CLOUDY    26  18  71 CALM      29.86R
MONTROSE       PTSUNNY   26  22  84 NW5       29.85R WCI  20
CORTEZ         CLOUDY    28  25  88 E6        29.87S WCI  22
PAGE, AZ       CLOUDY    41  30  65 S5        29.84R
GRAND CANYON   CLOUDY    34  25  69 NE6       29.83R WCI  29
KINGMAN        MOSUNNY   49  29  46 NE6       29.79R
FLAGSTAFF      CLOUDY    31  20  63 SW6       29.83R WCI  25

$$

REGIONAL REPORTS    NEVADA/IDAHO/WYOMING

CITY           SKY/WX    TMP DP  RH WIND       PRES   REMARKS
LAS VEGAS, NV  MOSUNNY   52  25  35 S9        29.76S
ELY            SUNNY     27  18  69 S6        29.81R WCI  20
ELKO           CLOUDY    29  27  92 CALM      29.79R
POCATELLO, ID  FLURRIES  28  23  81 N7        29.81R WCI  21
BURLEY         CLOUDY    33  30  88 N3        29.79R
EVANSTON, WY   CLOUDY    14  11  87 E9        29.79F WCI   2
ROCK SPRINGS   SUNNY      8   2  76 E5        29.85F WCI   0

$$


USA.gov is the U.S. government's official web portal to all federal, state and local government web resources and services.